When you browse on this site, cookies collect data to enhance your experience and personalize the content and advertising you see.
Visit our Privacy Policy to learn more. By continuing to use the site, you agree to this use of cookies and data.
  • In Hungary
  • List of Countries
  • For 7 days
  • Water Temperature
  • Satellite Maps
  • Weather Map
  • News
  • Weather Widgets
  • user-avatar
    Login

    Hourly Weather Nhlangano

    Today, 12 December, Wednesday

    Time Temperature Precipitation Wind Pressure Humidity
    00:00 +13°C° 0 mm 0 mps 675 mmHg 94%
    01:00 +12°C° 0 mm 0 mps 674 mmHg 95%
    02:00 +12°C° 0 mm 0 mps 674 mmHg 97%
    03:00 +13°C° 0 mm 1 mps 674 mmHg 96%
    04:00 +13°C° 0 mm 1 mps 673 mmHg 96%
    05:00 +13°C° 0 mm 1 mps 673 mmHg 96%
    06:00 +16°C° 0 mm 1 mps 673 mmHg 84%
    07:00 +20°C° 0 mm 1 mps 674 mmHg 73%
    08:00 +23°C° 0 mm 1 mps 674 mmHg 60%
    09:00 +25°C° 0 mm 1 mps 675 mmHg 53%
    10:00 +28°C° 0 mm 1 mps 675 mmHg 46%
    11:00 +30°C° 0 mm 1 mps 675 mmHg 39%
    12:00 +31°C° 0 mm 1 mps 674 mmHg 36%
    13:00 +32°C° 0 mm 2 mps 674 mmHg 34%
    14:00 +32°C° 0 mm 2 mps 674 mmHg 32%
    15:00 +31°C° 0 mm 2 mps 673 mmHg 36%
    16:00 +31°C° 0 mm 2 mps 673 mmHg 39%
    17:00 +30°C° 0 mm 3 mps 673 mmHg 43%
    18:00 +27°C° 0 mm 2 mps 673 mmHg 53%
    19:00 +24°C° 0 mm 1 mps 672 mmHg 62%
    20:00 +22°C° 0 mm 1 mps 672 mmHg 72%
    21:00 +21°C° 0 mm 1 mps 673 mmHg 75%
    22:00 +18°C° 0 mm 0 mps 673 mmHg 77%
    23:00 +18°C° 0 mm 0 mps 674 mmHg 80%

    Tomorrow, 13 December, Thursday

    Time Temperature Precipitation Wind Pressure Humidity
    00:00 +17°C° 0 mm 0 mps 674 mmHg 82%
    01:00 +19°C° 0 mm 1 mps 674 mmHg 84%
    02:00 +18°C° 0 mm 1 mps 674 mmHg 86%
    03:00 +18°C° 0 mm 1 mps 674 mmHg 88%
    04:00 +16°C° 0 mm 1 mps 675 mmHg 90%
    05:00 +16°C° 0 mm 1 mps 675 mmHg 92%
    06:00 +19°C° 0 mm 1 mps 676 mmHg 85%
    07:00 +20°C° 0 mm 1 mps 676 mmHg 78%
    08:00 +22°C° 0 mm 1 mps 677 mmHg 71%
    09:00 +23°C° 0 mm 1 mps 677 mmHg 67%
    10:00 +24°C° 0 mm 2 mps 677 mmHg 62%
    11:00 +26°C° 0 mm 2 mps 677 mmHg 58%
    12:00 +27°C° 0 mm 2 mps 677 mmHg 54%
    13:00 +28°C° 0 mm 2 mps 677 mmHg 50%
    14:00 +29°C° 0 mm 3 mps 677 mmHg 46%
    15:00 +28°C° 0.1 mm 3 mps 676 mmHg 50%
    16:00 +28°C° 0.1 mm 3 mps 676 mmHg 54%
    17:00 +27°C° 0.1 mm 3 mps 676 mmHg 57%
    18:00 +25°C° 0.1 mm 3 mps 676 mmHg 67%
    19:00 +23°C° 0.1 mm 2 mps 676 mmHg 76%
    20:00 +20°C° 0.1 mm 2 mps 676 mmHg 85%
    21:00 +19°C° 0 mm 2 mps 677 mmHg 87%
    22:00 +20°C° 0 mm 1 mps 677 mmHg 90%
    23:00 +20°C° 0 mm 1 mps 678 mmHg 92%

    Day after tomorrow, 14 December, Friday

    Time Temperature Precipitation Wind Pressure Humidity
    00:00 +20°C° 0.1 mm 1 mps 678 mmHg 93%
    01:00 +20°C° 0.1 mm 1 mps 677 mmHg 93%
    02:00 +19°C° 0.1 mm 1 mps 677 mmHg 94%
    03:00 +19°C° 0.1 mm 1 mps 677 mmHg 94%
    04:00 +19°C° 0.1 mm 1 mps 677 mmHg 95%
    05:00 +19°C° 0.1 mm 1 mps 678 mmHg 95%
    06:00 +20°C° 0 mm 1 mps 678 mmHg 91%
    07:00 +21°C° 0 mm 1 mps 678 mmHg 87%
    08:00 +21°C° 0 mm 1 mps 679 mmHg 83%
    09:00 +22°C° 0 mm 1 mps 679 mmHg 78%
    10:00 +24°C° 0 mm 1 mps 679 mmHg 73%
    11:00 +25°C° 0 mm 1 mps 679 mmHg 67%
    12:00 +26°C° 0 mm 2 mps 678 mmHg 64%
    13:00 +26°C° 0 mm 2 mps 677 mmHg 61%
    14:00 +27°C° 0 mm 3 mps 677 mmHg 58%
    15:00 +27°C° 0 mm 3 mps 676 mmHg 59%
    16:00 +27°C° 0 mm 3 mps 676 mmHg 60%
    17:00 +27°C° 0 mm 3 mps 676 mmHg 60%
    18:00 +25°C° 0.1 mm 3 mps 676 mmHg 66%
    19:00 +24°C° 0.1 mm 2 mps 677 mmHg 72%
    20:00 +22°C° 0.1 mm 1 mps 677 mmHg 78%
    21:00 +21°C° 0.4 mm 1 mps 677 mmHg 82%
    22:00 +21°C° 0.4 mm 1 mps 677 mmHg 85%
    23:00 +20°C° 0.4 mm 1 mps 677 mmHg 88%

    15 December, Saturday

    Time Temperature Precipitation Wind Pressure Humidity
    00:00 +20°C° 0 mm 1 mps 677 mmHg 90%
    01:00 +20°C° 0 mm 1 mps 676 mmHg 91%
    02:00 +19°C° 0 mm 1 mps 676 mmHg 93%
    03:00 +19°C° 0 mm 1 mps 676 mmHg 93%
    04:00 +19°C° 0 mm 1 mps 676 mmHg 93%
    05:00 +19°C° 0 mm 1 mps 676 mmHg 94%
    06:00 +20°C° 0 mm 1 mps 676 mmHg 87%
    07:00 +22°C° 0 mm 1 mps 677 mmHg 80%
    08:00 +23°C° 0 mm 1 mps 677 mmHg 73%
    09:00 +26°C° 0 mm 1 mps 677 mmHg 62%
    10:00 +28°C° 0 mm 2 mps 677 mmHg 51%
    11:00 +31°C° 0 mm 2 mps 677 mmHg 40%
    12:00 +32°C° 0 mm 2 mps 677 mmHg 36%
    13:00 +34°C° 0 mm 2 mps 677 mmHg 33%
    14:00 +36°C° 0 mm 2 mps 676 mmHg 30%
    15:00 +35°C° 0 mm 2 mps 676 mmHg 33%
    16:00 +34°C° 0 mm 3 mps 676 mmHg 36%
    17:00 +33°C° 0 mm 3 mps 675 mmHg 39%
    18:00 +29°C° 0.7 mm 3 mps 676 mmHg 50%
    19:00 +26°C° 0.7 mm 3 mps 676 mmHg 60%
    20:00 +24°C° 0.7 mm 3 mps 676 mmHg 71%
    21:00 +22°C° 0.7 mm 3 mps 677 mmHg 77%
    22:00 +21°C° 0.7 mm 2 mps 677 mmHg 83%
    23:00 +21°C° 0.7 mm 1 mps 678 mmHg 89%

    16 December, Sunday

    Time Temperature Precipitation Wind Pressure Humidity
    00:00 +21°C° 0.1 mm 1 mps 677 mmHg 89%
    01:00 +20°C° 0.1 mm 1 mps 677 mmHg 90%
    02:00 +20°C° 0.1 mm 1 mps 676 mmHg 90%
    03:00 +20°C° 0 mm 1 mps 676 mmHg 91%
    04:00 +17°C° 0 mm 0 mps 676 mmHg 92%
    05:00 +17°C° 0 mm 0 mps 676 mmHg 94%
    06:00 +19°C° 0 mm 0 mps 677 mmHg 85%
    07:00 +21°C° 0 mm 0 mps 678 mmHg 76%
    08:00 +23°C° 0 mm 0 mps 678 mmHg 67%
    09:00 +27°C° 0 mm 1 mps 678 mmHg 58%
    10:00 +29°C° 0 mm 1 mps 678 mmHg 49%
    11:00 +31°C° 0 mm 2 mps 678 mmHg 40%
    12:00 +32°C° 0 mm 2 mps 677 mmHg 38%
    13:00 +34°C° 0 mm 3 mps 677 mmHg 35%
    14:00 +35°C° 0 mm 3 mps 676 mmHg 33%
    15:00 +34°C° 0 mm 3 mps 676 mmHg 35%
    16:00 +33°C° 0 mm 3 mps 675 mmHg 37%
    17:00 +33°C° 0 mm 4 mps 675 mmHg 39%
    18:00 +29°C° 0 mm 3 mps 675 mmHg 47%
    19:00 +27°C° 0 mm 2 mps 676 mmHg 55%
    20:00 +24°C° 0 mm 1 mps 676 mmHg 63%
    21:00 +24°C° 0 mm 1 mps 676 mmHg 67%
    22:00 +23°C° 0 mm 1 mps 676 mmHg 71%
    23:00 +22°C° 0 mm 1 mps 676 mmHg 75%

    17 December, Monday

    Time Temperature Precipitation Wind Pressure Humidity
    00:00 +22°C° 0 mm 1 mps 676 mmHg 77%
    01:00 +21°C° 0 mm 1 mps 675 mmHg 80%
    02:00 +21°C° 0 mm 1 mps 674 mmHg 82%
    03:00 +20°C° 0 mm 1 mps 675 mmHg 84%
    04:00 +18°C° 0 mm 0 mps 675 mmHg 86%
    05:00 +17°C° 0 mm 0 mps 675 mmHg 88%
    06:00 +22°C° 0 mm 1 mps 676 mmHg 78%
    07:00 +24°C° 0 mm 1 mps 676 mmHg 68%
    08:00 +27°C° 0 mm 1 mps 677 mmHg 58%
    09:00 +29°C° 0 mm 1 mps 677 mmHg 50%
    10:00 +32°C° 0 mm 2 mps 677 mmHg 42%
    11:00 +35°C° 0 mm 2 mps 677 mmHg 34%
    12:00 +36°C° 0 mm 2 mps 677 mmHg 32%
    13:00 +37°C° 0 mm 2 mps 676 mmHg 30%
    14:00 +37°C° 0 mm 2 mps 676 mmHg 28%
    15:00 +36°C° 0 mm 3 mps 675 mmHg 31%
    16:00 +35°C° 0 mm 3 mps 675 mmHg 33%
    17:00 +35°C° 0 mm 4 mps 675 mmHg 36%
    18:00 +31°C° 0.4 mm 3 mps 675 mmHg 46%
    19:00 +28°C° 0.4 mm 3 mps 675 mmHg 56%
    20:00 +25°C° 0.4 mm 2 mps 676 mmHg 65%
    21:00 +24°C° 0.3 mm 2 mps 676 mmHg 69%
    22:00 +23°C° 0.3 mm 1 mps 676 mmHg 73%
    23:00 +22°C° 0.3 mm 1 mps 676 mmHg 77%
    Show more